This is the latest recevied weather packets stored in our database for station/object W8LMG. If no packets are shown the sender has not sent any weather packets the latest 10 day(s).
| Time | Temp. | Humidity | Pressure | Rain* | Wind** | Luminosity | Snow |
|---|---|---|---|---|---|---|---|
| 1777544905 | 9.44° C | 78% | 1010.4 hPa | 0 mm | - | 2 W/m² | - |
| 1777544601 | 9.44° C | 79% | 1010.3 hPa | 0 mm | - | 1 W/m² | - |
| 1777544298 | 9.44° C | 79% | 1010 hPa | 0 mm | - | 1 W/m² | - |
| 1777543995 | 9.44° C | 80% | 1009.8 hPa | 0 mm | - | 0 W/m² | - |
| 1777543691 | 10° C | 81% | 1009.9 hPa | 0 mm | - | 0 W/m² | - |
| 1777543388 | 10° C | 82% | 1009.9 hPa | 0 mm | - | 0 W/m² | - |
| 1777543082 | 10° C | 81% | 1010.2 hPa | 0 mm | - | 0 W/m² | - |
| 1777542780 | 10° C | 81% | 1010.3 hPa | 0 mm | - | 0 W/m² | - |
| 1777542476 | 10° C | 80% | 1010.2 hPa | 0 mm | - | 0 W/m² | - |
| 1777542173 | 10° C | 80% | 1010.4 hPa | 0 mm | - | 0 W/m² | - |
| 1777541870 | 10° C | 81% | 1010.3 hPa | 0 mm | - | 0 W/m² | - |
| 1777541567 | 10° C | 83% | 1010.3 hPa | 0 mm | - | 0 W/m² | - |
| 1777541264 | 10° C | 84% | 1010.5 hPa | 0 mm | - | 0 W/m² | - |
| 1777540959 | 10.56° C | 83% | 1010.6 hPa | 0 mm | - | 0 W/m² | - |
| 1777540657 | 10° C | 85% | 1010.8 hPa | 0 mm | - | 0 W/m² | - |
| 1777540354 | 10.56° C | 82% | 1010.8 hPa | 0 mm | - | 0 W/m² | - |
| 1777540051 | 10.56° C | 84% | 1010.8 hPa | 0 mm | - | 0 W/m² | - |
| 1777539746 | 10.56° C | 83% | 1010.8 hPa | 0 mm | - | 0 W/m² | - |
| 1777539442 | 10.56° C | 81% | 1010.8 hPa | 0 mm | - | 0 W/m² | - |
| 1777539138 | 10.56° C | 83% | 1010.7 hPa | 0 mm | - | 0 W/m² | - |
| 1777538836 | 10.56° C | 84% | 1010.8 hPa | 0 mm | - | 0 W/m² | - |
| 1777538535 | 10.56° C | 85% | 1011 hPa | 0 mm | - | 0 W/m² | - |
| 1777538231 | 10° C | 87% | 1010.8 hPa | 0 mm | - | 0 W/m² | - |
| 1777537927 | 10.56° C | 88% | 1010.5 hPa | 0 mm | - | 0 W/m² | - |
| 1777537623 | 10° C | 88% | 1010.8 hPa | 0 mm | - | 0 W/m² | - |
* Rain latest hour (hover to see other rain measurements)
** Current wind speed in m/s (hover to see current wind gust speed)